When you browse on this site, cookies collect data to enhance your experience and personalize the content and advertising you see.
Visit our Privacy Policy to learn more. By continuing to use the site, you agree to this use of cookies and data.
  • In Germany
  • List of Countries
  • For 7 days
  • Water Temperature
  • Weather Map
  • Weather Widgets
  • user-avatar
    Login

    Hourly Weather Kalgoorlie

    Today, 28 February, Friday

    Time Temperature Precipitation Wind Pressure Humidity
    00:00 +26°C° 0 mm 10 mps 729 mmHg 44%
    01:00 +24°C° 0 mm 9 mps 728 mmHg 47%
    02:00 +23°C° 0 mm 9 mps 728 mmHg 50%
    03:00 +23°C° 0 mm 8 mps 728 mmHg 52%
    04:00 +22°C° 0 mm 8 mps 728 mmHg 53%
    05:00 +22°C° 0 mm 8 mps 728 mmHg 55%
    06:00 +22°C° 0 mm 8 mps 728 mmHg 54%
    07:00 +22°C° 0 mm 7 mps 729 mmHg 53%
    08:00 +23°C° 0 mm 8 mps 729 mmHg 52%
    09:00 +24°C° 0 mm 8 mps 729 mmHg 49%
    10:00 +26°C° 0 mm 9 mps 729 mmHg 46%
    11:00 +27°C° 0 mm 9 mps 729 mmHg 43%
    12:00 +29°C° 0 mm 9 mps 728 mmHg 38%
    13:00 +32°C° 0 mm 8 mps 728 mmHg 33%
    14:00 +34°C° 0 mm 8 mps 727 mmHg 28%
    15:00 +34°C° 0 mm 8 mps 727 mmHg 28%
    16:00 +35°C° 0 mm 8 mps 726 mmHg 27%
    17:00 +35°C° 0 mm 8 mps 726 mmHg 27%
    18:00 +34°C° 0 mm 9 mps 726 mmHg 29%
    19:00 +32°C° 0 mm 9 mps 726 mmHg 31%
    20:00 +31°C° 0 mm 10 mps 726 mmHg 32%
    21:00 +31°C° 0 mm 10 mps 725 mmHg 32%
    22:00 +31°C° 0 mm 10 mps 725 mmHg 31%
    23:00 +31°C° 0 mm 11 mps 725 mmHg 31%

    Tomorrow, 29 February, Saturday

    Time Temperature Precipitation Wind Pressure Humidity
    00:00 +29°C° 0 mm 10 mps 725 mmHg 30%
    01:00 +29°C° 0 mm 9 mps 725 mmHg 30%
    02:00 +28°C° 0 mm 8 mps 724 mmHg 29%
    03:00 +28°C° 0 mm 6 mps 725 mmHg 30%
    04:00 +28°C° 0 mm 4 mps 725 mmHg 31%
    05:00 +27°C° 0 mm 2 mps 725 mmHg 32%
    06:00 +27°C° 0 mm 3 mps 725 mmHg 31%
    07:00 +27°C° 0 mm 4 mps 725 mmHg 31%
    08:00 +27°C° 0 mm 5 mps 726 mmHg 30%
    09:00 +27°C° 0 mm 5 mps 726 mmHg 31%
    10:00 +27°C° 0 mm 5 mps 726 mmHg 32%
    11:00 +27°C° 0 mm 5 mps 726 mmHg 33%
    12:00 +28°C° 0.1 mm 5 mps 725 mmHg 32%
    13:00 +29°C° 0.1 mm 5 mps 725 mmHg 32%
    14:00 +29°C° 0.1 mm 6 mps 724 mmHg 32%
    15:00 +28°C° 0.3 mm 6 mps 724 mmHg 38%
    16:00 +26°C° 0.3 mm 7 mps 724 mmHg 44%
    17:00 +23°C° 0.3 mm 8 mps 724 mmHg 50%
    18:00 +23°C° 0.2 mm 7 mps 724 mmHg 52%
    19:00 +23°C° 0.2 mm 7 mps 724 mmHg 55%
    20:00 +23°C° 0.2 mm 6 mps 724 mmHg 57%
    21:00 +23°C° 0.4 mm 5 mps 724 mmHg 58%
    22:00 +23°C° 0.4 mm 4 mps 724 mmHg 59%
    23:00 +24°C° 0.4 mm 2 mps 724 mmHg 60%

    Day after tomorrow, 1 March, Sunday

    Time Temperature Precipitation Wind Pressure Humidity
    00:00 +22°C° 0.2 mm 3 mps 724 mmHg 64%
    01:00 +22°C° 0.2 mm 3 mps 724 mmHg 68%
    02:00 +22°C° 0.2 mm 3 mps 723 mmHg 72%
    03:00 +22°C° 0 mm 3 mps 724 mmHg 71%
    04:00 +23°C° 0 mm 2 mps 724 mmHg 70%
    05:00 +23°C° 0 mm 2 mps 725 mmHg 69%
    06:00 +24°C° 0 mm 2 mps 725 mmHg 64%
    07:00 +25°C° 0 mm 2 mps 726 mmHg 58%
    08:00 +25°C° 0 mm 2 mps 726 mmHg 53%
    09:00 +27°C° 0 mm 2 mps 726 mmHg 50%
    10:00 +28°C° 0 mm 3 mps 727 mmHg 47%
    11:00 +29°C° 0 mm 3 mps 727 mmHg 44%
    12:00 +30°C° 0 mm 4 mps 727 mmHg 42%
    13:00 +32°C° 0 mm 4 mps 726 mmHg 40%
    14:00 +33°C° 0 mm 5 mps 726 mmHg 37%
    15:00 +32°C° 0 mm 7 mps 726 mmHg 42%
    16:00 +31°C° 0 mm 9 mps 727 mmHg 47%
    17:00 +29°C° 0 mm 10 mps 727 mmHg 51%
    18:00 +27°C° 0.1 mm 11 mps 727 mmHg 56%
    19:00 +26°C° 0.1 mm 12 mps 728 mmHg 62%
    20:00 +23°C° 0.1 mm 13 mps 729 mmHg 67%
    21:00 +22°C° 0 mm 12 mps 729 mmHg 69%
    22:00 +22°C° 0 mm 11 mps 730 mmHg 71%
    23:00 +21°C° 0 mm 11 mps 730 mmHg 73%

    2 March, Monday

    Time Temperature Precipitation Wind Pressure Humidity
    00:00 +19°C° 0 mm 11 mps 730 mmHg 74%
    01:00 +19°C° 0 mm 11 mps 730 mmHg 76%
    02:00 +18°C° 0 mm 11 mps 730 mmHg 77%
    03:00 +18°C° 0 mm 10 mps 730 mmHg 76%
    04:00 +18°C° 0 mm 10 mps 730 mmHg 74%
    05:00 +19°C° 0 mm 9 mps 731 mmHg 73%
    06:00 +18°C° 0 mm 10 mps 731 mmHg 73%
    07:00 +18°C° 0 mm 10 mps 732 mmHg 73%
    08:00 +17°C° 0 mm 10 mps 732 mmHg 73%
    09:00 +18°C° 0 mm 10 mps 732 mmHg 69%
    10:00 +19°C° 0 mm 9 mps 732 mmHg 66%
    11:00 +19°C° 0 mm 9 mps 732 mmHg 63%
    12:00 +22°C° 0 mm 8 mps 732 mmHg 57%
    13:00 +24°C° 0 mm 8 mps 731 mmHg 52%
    14:00 +26°C° 0 mm 8 mps 731 mmHg 47%
    15:00 +27°C° 0 mm 8 mps 731 mmHg 45%
    16:00 +27°C° 0 mm 8 mps 731 mmHg 43%
    17:00 +27°C° 0 mm 8 mps 730 mmHg 41%
    18:00 +26°C° 0 mm 8 mps 731 mmHg 40%
    19:00 +24°C° 0 mm 8 mps 731 mmHg 39%
    20:00 +22°C° 0 mm 8 mps 731 mmHg 38%
    21:00 +21°C° 0 mm 8 mps 732 mmHg 45%
    22:00 +19°C° 0 mm 9 mps 732 mmHg 52%
    23:00 +17°C° 0 mm 9 mps 732 mmHg 59%

    3 March, Tuesday

    Time Temperature Precipitation Wind Pressure Humidity
    00:00 +17°C° 0 mm 9 mps 732 mmHg 61%
    01:00 +16°C° 0 mm 8 mps 731 mmHg 64%
    02:00 +15°C° 0 mm 8 mps 731 mmHg 67%
    03:00 +15°C° 0 mm 7 mps 731 mmHg 68%
    04:00 +14°C° 0 mm 7 mps 731 mmHg 68%
    05:00 +14°C° 0 mm 7 mps 731 mmHg 69%
    06:00 +15°C° 0 mm 7 mps 731 mmHg 68%
    07:00 +15°C° 0 mm 6 mps 732 mmHg 66%
    08:00 +16°C° 0 mm 6 mps 732 mmHg 64%
    09:00 +19°C° 0 mm 6 mps 732 mmHg 56%
    10:00 +21°C° 0 mm 6 mps 732 mmHg 49%
    11:00 +23°C° 0 mm 6 mps 732 mmHg 41%
    12:00 +25°C° 0 mm 5 mps 731 mmHg 36%
    13:00 +26°C° 0 mm 5 mps 730 mmHg 31%
    14:00 +28°C° 0 mm 5 mps 730 mmHg 26%
    15:00 +28°C° 0 mm 5 mps 730 mmHg 24%
    16:00 +28°C° 0 mm 5 mps 729 mmHg 23%
    17:00 +28°C° 0 mm 5 mps 729 mmHg 21%
    18:00 +27°C° 0 mm 5 mps 729 mmHg 23%
    19:00 +26°C° 0 mm 4 mps 730 mmHg 25%
    20:00 +25°C° 0 mm 4 mps 730 mmHg 27%
    21:00 +23°C° 0 mm 4 mps 730 mmHg 29%
    22:00 +23°C° 0 mm 4 mps 730 mmHg 31%
    23:00 +22°C° 0 mm 4 mps 730 mmHg 33%

    4 March, Wednesday

    Time Temperature Precipitation Wind Pressure Humidity
    00:00 +21°C° 0 mm 5 mps 729 mmHg 42%
    01:00 +20°C° 0 mm 5 mps 729 mmHg 50%
    02:00 +19°C° 0 mm 6 mps 728 mmHg 58%
    03:00 +17°C° 0 mm 6 mps 728 mmHg 61%
    04:00 +17°C° 0 mm 5 mps 728 mmHg 63%
    05:00 +16°C° 0 mm 5 mps 728 mmHg 66%
    06:00 +17°C° 0 mm 5 mps 728 mmHg 62%
    07:00 +19°C° 0 mm 5 mps 729 mmHg 59%
    08:00 +20°C° 0 mm 5 mps 729 mmHg 56%
    09:00 +22°C° 0 mm 5 mps 729 mmHg 48%
    10:00 +25°C° 0 mm 5 mps 728 mmHg 40%
    11:00 +27°C° 0 mm 4 mps 728 mmHg 32%
    12:00 +28°C° 0 mm 3 mps 728 mmHg 29%
    13:00 +29°C° 0 mm 3 mps 727 mmHg 25%
    14:00 +30°C° 0 mm 2 mps 726 mmHg 21%
    15:00 +31°C° 0 mm 2 mps 726 mmHg 20%
    16:00 +31°C° 0 mm 2 mps 726 mmHg 19%
    17:00 +31°C° 0 mm 1 mps 726 mmHg 18%
    18:00 +30°C° 0 mm 2 mps 726 mmHg 20%
    19:00 +29°C° 0 mm 3 mps 726 mmHg 21%
    20:00 +28°C° 0 mm 4 mps 726 mmHg 23%
    21:00 +28°C° 0 mm 4 mps 726 mmHg 25%
    22:00 +27°C° 0 mm 4 mps 726 mmHg 26%
    23:00 +26°C° 0 mm 5 mps 726 mmHg 28%
    Show more